This is the latest recevied weather packets stored in our database for station/object K1JO. If no packets are shown the sender has not sent any weather packets the latest 1 day(s).
| Time | Temp. | Humidity | Pressure | Rain* | Wind** | Luminosity | Snow |
|---|---|---|---|---|---|---|---|
| 1778025563 | 14.44° C | 77% | 1003.5 hPa | 0 mm | 0.89 m/s, 272° | 0 W/m² | - |
| 1778025261 | 14.44° C | 76% | 1003.7 hPa | 0 mm | 1.34 m/s, 289° | 0 W/m² | - |
| 1778024958 | 14.44° C | 76% | 1003.4 hPa | 0 mm | 0.45 m/s, 95° | 0 W/m² | - |
| 1778024655 | 15° C | 76% | 1003.5 hPa | 0 mm | 1.79 m/s, 206° | 1 W/m² | - |
| 1778024352 | 15° C | 75% | 1003.4 hPa | 0 mm | 1.79 m/s, 151° | 1 W/m² | - |
| 1778024050 | 15° C | 75% | 1003.5 hPa | 0 mm | 0.45 m/s, 320° | 1 W/m² | - |
| 1778023747 | 15° C | 75% | 1003.2 hPa | 0 mm | 1.79 m/s, 117° | 2 W/m² | - |
| 1778023445 | 15° C | 76% | 1004.1 hPa | 0 mm | 0.89 m/s, 16° | 2 W/m² | - |
| 1778023141 | 15° C | 75% | 1002.1 hPa | 0 mm | 0.45 m/s, 7° | 4 W/m² | - |
| 1778022839 | 15° C | 75% | 1001.4 hPa | 0 mm | 0.45 m/s, 53° | 9 W/m² | - |
| 1778022537 | 15° C | 74% | 1001.4 hPa | 0 mm | 0.45 m/s, 193° | 12 W/m² | - |
| 1778022234 | 15.56° C | 74% | 1001.1 hPa | 0 mm | 2.24 m/s, 182° | 16 W/m² | - |
| 1778021930 | 15.56° C | 73% | 1001.1 hPa | 0 mm | 1.79 m/s, 159° | 18 W/m² | - |
| 1778021628 | 15.56° C | 72% | 1001.2 hPa | 0 mm | 0.45 m/s, 263° | 23 W/m² | - |
| 1778021323 | 15.56° C | 72% | 1001 hPa | 0 mm | 0.45 m/s, 68° | 30 W/m² | - |
| 1778021021 | 16.11° C | 71% | 1000.8 hPa | 0 mm | 0.89 m/s, 33° | 37 W/m² | - |
| 1778020718 | 16.11° C | 71% | 1000.5 hPa | 0 mm | 0.89 m/s, 216° | 45 W/m² | - |
| 1778020414 | 16.11° C | 71% | 1000.5 hPa | 0 mm | 0.89 m/s, 82° | 52 W/m² | - |
| 1778020110 | 16.11° C | 71% | 1000.7 hPa | 0 mm | 1.79 m/s, 243° | 59 W/m² | - |
| 1778019806 | 16.11° C | 71% | 1000.7 hPa | 0 mm | 3.13 m/s, 209° | 62 W/m² | - |
| 1778019504 | 16.11° C | 70% | 1000.4 hPa | 0 mm | 1.34 m/s, 148° | 61 W/m² | - |
| 1778019200 | 16.67° C | 70% | 1000.5 hPa | 0 mm | 1.79 m/s, 178° | 63 W/m² | - |
| 1778018898 | 16.67° C | 70% | 1000.2 hPa | 0 mm | 2.68 m/s, 182° | 65 W/m² | - |
| 1778018594 | 16.67° C | 70% | 1000.4 hPa | 0 mm | 2.68 m/s, 152° | 65 W/m² | - |
| 1778018293 | 16.67° C | 69% | 1000.4 hPa | 0 mm | 1.79 m/s, 2° | 68 W/m² | - |
* Rain latest hour (hover to see other rain measurements)
** Current wind speed in m/s (hover to see current wind gust speed)